Regional Weather Roundup
Issued by NWS

Home | Current Version | Previous Version | Graphics & Text | Print | Product List | Glossary Off
Versions: 1 2 3 4 5 6 7 8 9 10 11 12 13 14 15 16 17 18 19 20 21 22 23 24 25 26 27 28 29 30 31 32 33 34 35 36 37 38 39 40 41 42 43 44 45 46 47 48 49 50

000
ASUS43 KTOP 021459
RWRKS

WEATHER ROUNDUP FOR KANSAS
NATIONAL WEATHER SERVICE GOODLAND KS
1000 AM CDT SUN AUG 02 2015

NOTE:  "FAIR" INDICATES FEW OR NO CLOUDS BELOW 12,000 FEET WITH NO
SIGNIFICANT WEATHER AND/OR OBSTRUCTIONS TO VISIBILITY.

KSZ001>006-013>018-027>032-041>047-021600-
NORTHWEST KANSAS

CITY           SKY/WX    TMP DP  RH WIND       PRES   REMARKS
GOODLAND       SUNNY     82  67  60 S7        30.01F
HAYS           SUNNY     82  66  57 SW7       29.95S
HILL CITY      MOSUNNY   82  71  69 SW7       29.94F
RUSSELL        SUNNY     82  70  66 SW9       29.94S
$$

KSZ061>065-074>080-084>089-021600-
SOUTHWEST KANSAS

CITY           SKY/WX    TMP DP  RH WIND       PRES   REMARKS
DODGE CITY     SUNNY     77  66  68 S6        29.99R
ELKHART          N/A     77  65  66 SW7         N/A
GARDEN CITY    SUNNY     78  65  63 W8        29.98S
GREAT BEND     SUNNY     81  70  69 S8        29.94F
LIBERAL        SUNNY     77  63  61 SE9       30.00S
PRATT          SUNNY     79  68  69 SW9       29.99S
$$

KSZ066>073-081>083-090>101-021600-
SOUTHEAST KANSAS

CITY           SKY/WX    TMP DP  RH WIND       PRES   REMARKS
CHANUTE        MOSUNNY   82  67  60 SW9       29.98S
COFFEYVILLE    SUNNY     84  69  60 S9        29.97F
HUTCHINSON     SUNNY     83  68  60 S10       29.96F
MEDICINE LODGE   N/A     79  71  76 S6        29.96F
NEWTON         SUNNY     81  66  61 SW14      29.99S
PARSONS        SUNNY     84  70  62 S6        29.99S
WICHITA INTL   MOSUNNY   81  69  67 S10       29.97S
WICHITA JABRA  SUNNY     82  68  62 S10       29.97S
WINFIELD       SUNNY     81  69  67 S10       29.99S
$$

KSZ007>012-019>026-033>040-048>060-102>105-021600-
NORTHEAST KANSAS

CITY           SKY/WX    TMP DP  RH WIND       PRES   REMARKS
CONCORDIA      SUNNY     83  70  64 SW13      29.92S
EMPORIA        SUNNY     84  66  54 SW13      29.96S
LAWRENCE       SUNNY     84  68  58 W8        29.93S
MANHATTAN      SUNNY     84  72  67 SW13      29.92F
OLATHE IND     SUNNY     83  67  58 SW14      29.96S
OLATHE EXE     SUNNY     82  67  60 SW9       29.95S
SALINA         SUNNY     85  69  58 S15       29.93F
TOPEKA BILLARD SUNNY     83  70  64 SW9       29.92F
TOPEKA FORBES  SUNNY     84  68  58 SW13      29.93F
$$


USA.gov is the U.S. government's official web portal to all federal, state and local government web resources and services.